Weather History for Livingston, MT

Change the Weather History Date:

Monday, December 31, 2012

  Actual Average Record
Temperature  
Mean Temperature 16 °F 26 °F  
Max Temperature 25 °F 36 °F 57 °F (1996)
Min Temperature 6 °F 16 °F -18 °F (1992)
Degree Days  
Heating Degree Days 50 39  
Month to date heating degree days 1205  
Since 1 July heating degree days 3165  
Moisture  
Dew Point 8 °F    
Average Humidity 62    
Maximum Humidity 80    
Minimum Humidity 51    
Precipitation  
Precipitation 0.00 in 0.02 in 0.18 in (2013)
Month to date precipitation 0.52  
Year to date precipitation 14.81  
Sea Level Pressure  
Sea Level Pressure 30.21 in    
Wind  
Wind Speed 14 mph (West)    
Max Wind Speed 25 mph    
Max Gust Speed 23 mph    
Visibility 10 miles    
Events      
T = Trace of Precipitation, MM = Missing Value Source: NWS Daily Summary

Daily Weather History Graph

Daily Weather History Graph

Search for Another Location

Airport:

Trip Planner

Search our weather history database for the weather conditions in past years. The results will help you decide how hot, cold, wet, or windy it might be!

Date:

Astronomy

Dec. 31, 2012 Rise Set
Actual Time 8:02 AM MST 4:47 PM MST
Civil Twilight 7:28 AM MST 5:21 PM MST
Nautical Twilight 6:50 AM MST 5:59 PM MST
Astronomical Twilight 6:14 AM MST 6:35 PM MST
Moon 8:33 PM MST (12/31) 9:35 AM MST (12/31)
Length of Visible Light 9h 53m
Length of Day
8h 45m
Waning Gibbous, 90% of the Moon is Illuminated
Dec 31
Waning Gibbous
Jan 4
Last Quarter
Jan 11
New
Jan 18
First Quarter
Jan 26
Full

Hourly Weather History & Observations

Time (MST) Temp. Windchill Dew Point Humidity Pressure Visibility Wind Dir Wind Speed Gust Speed Precip Events Conditions
12:53 AM 16.0 °F 2.3 °F 8.1 °F 71% 30.16 in 10.0 mi West 12.7 mph - N/A   Partly Cloudy
1:53 AM 12.0 °F -1.3 °F 6.1 °F 77% 30.17 in 10.0 mi WSW 10.4 mph - N/A   Mostly Cloudy
2:53 AM 14.0 °F 1.2 °F 6.1 °F 71% 30.19 in 10.0 mi West 10.4 mph - N/A   Partly Cloudy
3:53 AM 10.0 °F -0.9 °F 3.9 °F 76% 30.22 in 10.0 mi WNW 6.9 mph - N/A   Mostly Cloudy
4:53 AM 12.0 °F -1.3 °F 5.0 °F 73% 30.21 in 10.0 mi West 10.4 mph - N/A   Mostly Cloudy
5:53 AM 6.1 °F -5.6 °F 1.0 °F 80% 30.23 in 10.0 mi NW 6.9 mph - N/A   Clear
6:53 AM 16.0 °F 0.6 °F 5.0 °F 62% 30.20 in 10.0 mi West 16.1 mph - N/A   Clear
7:53 AM 17.1 °F 1.0 °F 6.1 °F 62% 30.20 in 10.0 mi WSW 18.4 mph 23.0 mph N/A   Clear
8:53 AM 17.1 °F -1.0 °F 5.0 °F 59% 30.21 in 10.0 mi SW 24.2 mph - N/A   Clear
9:53 AM 18.0 °F 0.6 °F 6.1 °F 60% 30.21 in 10.0 mi SW 23.0 mph - N/A   Clear
10:53 AM 21.0 °F 3.9 °F 6.1 °F 53% 30.21 in 10.0 mi WSW 25.3 mph - N/A   Clear
11:53 AM 24.1 °F 9.8 °F 8.1 °F 51% 30.18 in 10.0 mi WSW 19.6 mph - N/A   Clear
12:53 PM 24.1 °F 9.8 °F 8.1 °F 51% 30.17 in 10.0 mi West 19.6 mph - N/A   Clear
1:53 PM 25.0 °F 13.6 °F 9.0 °F 51% 30.18 in 10.0 mi West 12.7 mph - N/A   Clear
2:53 PM 25.0 °F 11.3 °F 9.0 °F 51% 30.18 in 10.0 mi West 18.4 mph - N/A   Clear
3:53 PM 23.0 °F 8.7 °F 9.0 °F 55% 30.22 in 10.0 mi West 18.4 mph 23.0 mph N/A   Overcast
4:53 PM 21.9 °F 7.8 °F 9.0 °F 58% 30.22 in 10.0 mi West 17.3 mph - N/A   Overcast
5:53 PM 23.0 °F 10.1 °F 9.0 °F 55% 30.24 in 10.0 mi WNW 15.0 mph - N/A   Overcast
6:53 PM 23.0 °F 10.6 °F 10.0 °F 58% 30.22 in 10.0 mi WNW 13.8 mph - N/A   Overcast
7:53 PM 23.0 °F 9.6 °F 10.0 °F 58% 30.22 in 10.0 mi WNW 16.1 mph - N/A   Overcast
8:53 PM 23.0 °F 9.6 °F 10.9 °F 60% 30.22 in 10.0 mi WNW 16.1 mph - N/A   Overcast
9:53 PM 23.0 °F 11.1 °F 12.0 °F 63% 30.24 in 10.0 mi WNW 12.7 mph - N/A   Overcast
10:53 PM 23.0 °F 12.4 °F 12.9 °F 65% 30.26 in 10.0 mi West 10.4 mph - N/A   Overcast
11:53 PM 24.1 °F 13.1 °F 12.0 °F 60% 30.26 in 10.0 mi West 11.5 mph - N/A   Overcast